HULIANWANG DIGUI 5D

Last updated on Wed Aug 13 2025 00:02:07 GMT+0000 (Coordinated Universal Time)

1 64959U 25159D 25224.55560854 .00000068 00000+0 62556-4 0 9999 2 64959 86.4981 27.1143 0001439 96.4013 263.7309 13.65907960 2197
UTC large
Height (km)
Speed (km/s)
/
Latitude / Longitude
Inclination (degrees)
Orbital Period (minutes)
Azimuth
Elevation
Range (km)
Doppler Factor

Next 0 passes for location: London (51.5072 / 0.1276)

Sorry there are no passes over London.